Location: Biłgoraj
(50.5411°N, 22.7220°E)
Time: 18:11:50
(UTC+01:00)

ISS - Visible Passes

Search period start: 16 January 2019 00:00
Search period end: 26 January 2019 00:00
Orbit: 404 x 407 km, 51.6° (Epoch: 17 January)

Date Brightness Start Highest point End Pass type
(mag) Time Alt. Az. Time Alt. Az. Time Alt. Az.
22 Jan -1.2 17:54:54 10° SSE 17:54:56 10° SSE 17:54:56 10° SSE visible
23 Jan -1.4 18:37:04 10° SW 18:38:06 17° SSW 18:38:06 17° SSW visible
24 Jan -2.2 17:45:40 10° SSW 17:48:15 21° SE 17:48:29 21° SE visible
24 Jan -0.4 19:21:06 10° WSW 19:21:11 10° WSW 19:21:11 10° WSW visible
25 Jan -1.5 16:54:45 10° S 16:56:29 14° SE 16:58:14 10° ESE visible
25 Jan -2.6 18:29:14 10° SW 18:31:29 38° SSW 18:31:29 38° SSW visible
